2019,02,17,00,00,00,76.5,,,,,,,,,,,,,,
2019,02,17,00,01,00,80.9,,,,,,,,,,,,,,
2019,02,17,00,02,00,75.9,,,,,,,,,,,,,,
2019,02,17,00,03,00,70.2,,,,,,,,,,,,,,
2019,02,17,00,04,00,78.6,,,,,,,,,,,,,,
2019,02,17,00,05,00,79.5,,,,,,,,,,,,,,
2019,02,17,00,06,00,75.5,,,,,,,,,,,,,,
2019,02,17,00,07,00,71.8,,,,,,,,,,,,,,
2019,02,17,00,08,00,71.0,,,,,,,,,,,,,,
2019,02,17,00,09,00,95.8,,,,,,,,,,,,,,
2019,02,17,00,10,00,79.6,,,,,,,,,,,,,,
2019,02,17,00,11,00,80.1,,,,,,,,,,,,,,
2019,02,17,00,12,00,78.0,,,,,,,,,,,,,,
2019,02,17,00,13,00,78.8,,,,,,,,,,,,,,
2019,02,17,00,14,00,83.3,,,,,,,,,,,,,,
2019,02,17,00,15,00,48.1,,,,,,,,,,,,,,
2019,02,17,00,16,00,38.0,,,,,,,,,,,,,,
2019,02,17,00,17,00,65.9,,,,,,,,,,,,,,
2019,02,17,00,18,00,70.1,,,,,,,,,,,,,,
2019,02,17,00,19,00,60.6,,,,,,,,,,,,,,
2019,02,17,00,20,00,71.6,,,,,,,,,,,,,,
2019,02,17,00,21,00,76.7,,,,,,,,,,,,,,
2019,02,17,00,22,00,90.9,,,,,,,,,,,,,,
2019,02,17,00,23,00,83.4,,,,,,,,,,,,,,
2019,02,17,00,24,00,93.1,,,,,,,,,,,,,,
2019,02,17,00,25,00,78.1,,,,,,,,,,,,,,
2019,02,17,00,26,00,82.6,,,,,,,,,,,,,,
2019,02,17,00,27,00,80.0,,,,,,,,,,,,,,
2019,02,17,00,28,00,75.2,,,,,,,,,,,,,,
2019,02,17,00,29,00,64.3,,,,,,,,,,,,,,
2019,02,17,00,30,00,49.9,,,,,,,,,,,,,,
2019,02,17,00,31,00,63.7,,,,,,,,,,,,,,
2019,02,17,00,32,00,63.5,,,,,,,,,,,,,,
2019,02,17,00,33,00,39.0,,,,,,,,,,,,,,
2019,02,17,00,34,00,36.3,,,,,,,,,,,,,,
2019,02,17,00,35,00,37.7,,,,,,,,,,,,,,
2019,02,17,00,36,00,38.1,,,,,,,,,,,,,,
2019,02,17,00,37,00,38.3,,,,,,,,,,,,,,
2019,02,17,00,38,00,47.1,,,,,,,,,,,,,,
2019,02,17,00,39,00,60.0,,,,,,,,,,,,,,
2019,02,17,00,40,00,46.1,,,,,,,,,,,,,,
2019,02,17,00,41,00,38.0,,,,,,,,,,,,,,
2019,02,17,00,42,00,36.1,,,,,,,,,,,,,,
2019,02,17,00,43,00,36.2,,,,,,,,,,,,,,
2019,02,17,00,44,00,36.3,,,,,,,,,,,,,,
2019,02,17,00,45,00,40.8,,,,,,,,,,,,,,
2019,02,17,00,46,00,48.1,,,,,,,,,,,,,,
2019,02,17,00,47,00,50.4,,,,,,,,,,,,,,
2019,02,17,00,48,00,38.0,,,,,,,,,,,,,,
2019,02,17,00,49,00,39.6,,,,,,,,,,,,,,
2019,02,17,00,50,00,49.2,,,,,,,,,,,,,,
2019,02,17,00,51,00,42.2,,,,,,,,,,,,,,
2019,02,17,00,52,00,37.8,,,,,,,,,,,,,,
2019,02,17,00,53,00,37.8,,,,,,,,,,,,,,
2019,02,17,00,54,00,49.4,,,,,,,,,,,,,,
2019,02,17,00,55,00,58.6,,,,,,,,,,,,,,
2019,02,17,00,56,00,50.7,,,,,,,,,,,,,,
2019,02,17,00,57,00,47.7,,,,,,,,,,,,,,
2019,02,17,00,58,00,37.9,,,,,,,,,,,,,,
2019,02,17,00,59,00,39.3,,,,,,,,,,,,,,
2019,02,17,01,00,00,36.9,,,,,,,,,,,,,,
2019,02,17,01,01,00,36.8,,,,,,,,,,,,,,
2019,02,17,01,02,00,41.9,,,,,,,,,,,,,,
2019,02,17,01,03,00,37.5,,,,,,,,,,,,,,
2019,02,17,01,04,00,42.2,,,,,,,,,,,,,,
2019,02,17,01,05,00,36.4,,,,,,,,,,,,,,
2019,02,17,01,06,00,41.1,,,,,,,,,,,,,,
2019,02,17,01,07,00,67.1,,,,,,,,,,,,,,
2019,02,17,01,08,00,65.8,,,,,,,,,,,,,,
2019,02,17,01,09,00,42.8,,,,,,,,,,,,,,
2019,02,17,01,10,00,50.6,,,,,,,,,,,,,,
2019,02,17,01,11,00,63.6,,,,,,,,,,,,,,
2019,02,17,01,12,00,56.7,,,,,,,,,,,,,,
2019,02,17,01,13,00,39.7,,,,,,,,,,,,,,
2019,02,17,01,14,00,37.6,,,,,,,,,,,,,,
2019,02,17,01,15,00,37.9,,,,,,,,,,,,,,
2019,02,17,01,16,00,36.7,,,,,,,,,,,,,,
2019,02,17,01,17,00,42.1,,,,,,,,,,,,,,
2019,02,17,01,18,00,38.3,,,,,,,,,,,,,,
2019,02,17,01,19,00,35.9,,,,,,,,,,,,,,
2019,02,17,01,20,00,34.6,,,,,,,,,,,,,,
2019,02,17,01,21,00,36.0,,,,,,,,,,,,,,
2019,02,17,01,22,00,37.6,,,,,,,,,,,,,,
2019,02,17,01,23,00,35.1,,,,,,,,,,,,,,
2019,02,17,01,24,00,35.5,,,,,,,,,,,,,,
2019,02,17,01,25,00,32.1,,,,,,,,,,,,,,
2019,02,17,01,26,00,30.2,,,,,,,,,,,,,,
2019,02,17,01,27,00,30.5,,,,,,,,,,,,,,
2019,02,17,01,28,00,32.5,,,,,,,,,,,,,,
2019,02,17,01,29,00,34.6,,,,,,,,,,,,,,
2019,02,17,01,30,00,37.1,,,,,,,,,,,,,,
2019,02,17,01,31,00,35.9,,,,,,,,,,,,,,
2019,02,17,01,32,00,35.7,,,,,,,,,,,,,,
2019,02,17,01,33,00,35.9,,,,,,,,,,,,,,
2019,02,17,01,34,00,35.4,,,,,,,,,,,,,,
2019,02,17,01,35,00,36.5,,,,,,,,,,,,,,
2019,02,17,01,36,00,35.7,,,,,,,,,,,,,,
2019,02,17,01,37,00,35.2,,,,,,,,,,,,,,
2019,02,17,01,38,00,40.1,,,,,,,,,,,,,,
2019,02,17,01,39,00,36.1,,,,,,,,,,,,,,
2019,02,17,01,40,00,34.9,,,,,,,,,,,,,,
2019,02,17,01,41,00,31.1,,,,,,,,,,,,,,
2019,02,17,01,42,00,31.6,,,,,,,,,,,,,,
2019,02,17,01,43,00,32.7,,,,,,,,,,,,,,
2019,02,17,01,44,00,36.5,,,,,,,,,,,,,,
2019,02,17,01,45,00,42.9,,,,,,,,,,,,,,
2019,02,17,01,46,00,36.1,,,,,,,,,,,,,,
2019,02,17,01,47,00,35.5,,,,,,,,,,,,,,
2019,02,17,01,48,00,35.8,,,,,,,,,,,,,,
2019,02,17,01,49,00,37.2,,,,,,,,,,,,,,
2019,02,17,01,50,00,37.4,,,,,,,,,,,,,,
2019,02,17,01,51,00,37.3,,,,,,,,,,,,,,
2019,02,17,01,52,00,38.0,,,,,,,,,,,,,,
2019,02,17,01,53,00,35.7,,,,,,,,,,,,,,
2019,02,17,01,54,00,38.8,,,,,,,,,,,,,,
2019,02,17,01,55,00,58.2,,,,,,,,,,,,,,
2019,02,17,01,56,00,36.0,,,,,,,,,,,,,,
2019,02,17,01,57,00,39.2,,,,,,,,,,,,,,
2019,02,17,01,58,00,45.2,,,,,,,,,,,,,,
2019,02,17,01,59,00,48.5,,,,,,,,,,,,,,
2019,02,17,02,00,00,37.4,,,,,,,,,,,,,,
2019,02,17,02,01,00,37.0,,,,,,,,,,,,,,
2019,02,17,02,02,00,42.1,,,,,,,,,,,,,,
2019,02,17,02,03,00,43.5,,,,,,,,,,,,,,
2019,02,17,02,04,00,52.9,,,,,,,,,,,,,,
2019,02,17,02,05,00,51.3,,,,,,,,,,,,,,
2019,02,17,02,06,00,55.0,,,,,,,,,,,,,,
2019,02,17,02,07,00,43.5,,,,,,,,,,,,,,
2019,02,17,02,08,00,51.8,,,,,,,,,,,,,,
2019,02,17,02,09,00,37.5,,,,,,,,,,,,,,
2019,02,17,02,10,00,34.4,,,,,,,,,,,,,,
2019,02,17,02,11,00,33.3,,,,,,,,,,,,,,
2019,02,17,02,12,00,32.3,,,,,,,,,,,,,,
2019,02,17,02,13,00,35.1,,,,,,,,,,,,,,
2019,02,17,02,14,00,36.3,,,,,,,,,,,,,,
2019,02,17,02,15,00,37.3,,,,,,,,,,,,,,
2019,02,17,02,16,00,37.6,,,,,,,,,,,,,,
2019,02,17,02,17,00,39.1,,,,,,,,,,,,,,
2019,02,17,02,18,00,51.9,,,,,,,,,,,,,,
2019,02,17,02,19,00,39.6,,,,,,,,,,,,,,
2019,02,17,02,20,00,35.8,,,,,,,,,,,,,,
2019,02,17,02,21,00,36.7,,,,,,,,,,,,,,
2019,02,17,02,22,00,60.3,,,,,,,,,,,,,,
2019,02,17,02,23,00,43.4,,,,,,,,,,,,,,
2019,02,17,02,24,00,40.5,,,,,,,,,,,,,,
2019,02,17,02,25,00,34.9,,,,,,,,,,,,,,
2019,02,17,02,26,00,36.3,,,,,,,,,,,,,,
2019,02,17,02,27,00,39.6,,,,,,,,,,,,,,
2019,02,17,02,28,00,39.3,,,,,,,,,,,,,,
2019,02,17,02,29,00,37.6,,,,,,,,,,,,,,
2019,02,17,02,30,00,36.2,,,,,,,,,,,,,,
2019,02,17,02,31,00,35.8,,,,,,,,,,,,,,
2019,02,17,02,32,00,36.9,,,,,,,,,,,,,,
2019,02,17,02,33,00,38.1,,,,,,,,,,,,,,
2019,02,17,02,34,00,36.9,,,,,,,,,,,,,,
2019,02,17,02,35,00,44.3,,,,,,,,,,,,,,
2019,02,17,02,36,00,58.3,,,,,,,,,,,,,,
2019,02,17,02,37,00,59.6,,,,,,,,,,,,,,
2019,02,17,02,38,00,57.8,,,,,,,,,,,,,,
2019,02,17,02,39,00,43.3,,,,,,,,,,,,,,
2019,02,17,02,40,00,37.3,,,,,,,,,,,,,,
2019,02,17,02,41,00,36.6,,,,,,,,,,,,,,
2019,02,17,02,42,00,36.6,,,,,,,,,,,,,,
2019,02,17,02,43,00,35.6,,,,,,,,,,,,,,
2019,02,17,02,44,00,46.6,,,,,,,,,,,,,,
2019,02,17,02,45,00,61.2,,,,,,,,,,,,,,
2019,02,17,02,46,00,62.4,,,,,,,,,,,,,,
2019,02,17,02,47,00,49.6,,,,,,,,,,,,,,
2019,02,17,02,48,00,41.3,,,,,,,,,,,,,,
2019,02,17,02,49,00,37.1,,,,,,,,,,,,,,
2019,02,17,02,50,00,36.8,,,,,,,,,,,,,,
2019,02,17,02,51,00,36.0,,,,,,,,,,,,,,
2019,02,17,02,52,00,37.5,,,,,,,,,,,,,,
2019,02,17,02,53,00,46.7,,,,,,,,,,,,,,
2019,02,17,02,54,00,36.0,,,,,,,,,,,,,,
2019,02,17,02,55,00,36.7,,,,,,,,,,,,,,
2019,02,17,02,56,00,51.4,,,,,,,,,,,,,,
2019,02,17,02,57,00,45.2,,,,,,,,,,,,,,
2019,02,17,02,58,00,43.4,,,,,,,,,,,,,,
2019,02,17,02,59,00,53.2,,,,,,,,,,,,,,
2019,02,17,03,00,00,56.3,,,,,,,,,,,,,,
2019,02,17,03,01,00,58.3,,,,,,,,,,,,,,
2019,02,17,03,02,00,44.1,,,,,,,,,,,,,,
2019,02,17,03,03,00,39.2,,,,,,,,,,,,,,
2019,02,17,03,04,00,37.7,,,,,,,,,,,,,,
2019,02,17,03,05,00,37.3,,,,,,,,,,,,,,
2019,02,17,03,06,00,35.6,,,,,,,,,,,,,,
2019,02,17,03,07,00,35.3,,,,,,,,,,,,,,
2019,02,17,03,08,00,34.6,,,,,,,,,,,,,,
2019,02,17,03,09,00,35.1,,,,,,,,,,,,,,
2019,02,17,03,10,00,33.1,,,,,,,,,,,,,,
2019,02,17,03,11,00,35.2,,,,,,,,,,,,,,
2019,02,17,03,12,00,35.4,,,,,,,,,,,,,,
2019,02,17,03,13,00,36.5,,,,,,,,,,,,,,
2019,02,17,03,14,00,36.6,,,,,,,,,,,,,,
2019,02,17,03,15,00,36.7,,,,,,,,,,,,,,
2019,02,17,03,16,00,35.5,,,,,,,,,,,,,,
2019,02,17,03,17,00,37.1,,,,,,,,,,,,,,
2019,02,17,03,18,00,69.1,,,,,,,,,,,,,,
2019,02,17,03,19,00,58.6,,,,,,,,,,,,,,
2019,02,17,03,20,00,39.8,,,,,,,,,,,,,,
2019,02,17,03,21,00,39.1,,,,,,,,,,,,,,
2019,02,17,03,22,00,40.4,,,,,,,,,,,,,,
2019,02,17,03,23,00,36.6,,,,,,,,,,,,,,
2019,02,17,03,24,00,40.5,,,,,,,,,,,,,,
2019,02,17,03,25,00,42.9,,,,,,,,,,,,,,
2019,02,17,03,26,00,40.8,,,,,,,,,,,,,,
2019,02,17,03,27,00,36.3,,,,,,,,,,,,,,
2019,02,17,03,28,00,36.9,,,,,,,,,,,,,,
2019,02,17,03,29,00,37.0,,,,,,,,,,,,,,
2019,02,17,03,30,00,36.6,,,,,,,,,,,,,,
2019,02,17,03,31,00,35.3,,,,,,,,,,,,,,
2019,02,17,03,32,00,36.9,,,,,,,,,,,,,,
2019,02,17,03,33,00,39.6,,,,,,,,,,,,,,
2019,02,17,03,34,00,53.8,,,,,,,,,,,,,,
2019,02,17,03,35,00,52.6,,,,,,,,,,,,,,
2019,02,17,03,36,00,39.4,,,,,,,,,,,,,,
2019,02,17,03,37,00,39.5,,,,,,,,,,,,,,
2019,02,17,03,38,00,44.9,,,,,,,,,,,,,,
2019,02,17,03,39,00,60.0,,,,,,,,,,,,,,
2019,02,17,03,40,00,41.3,,,,,,,,,,,,,,
2019,02,17,03,41,00,37.7,,,,,,,,,,,,,,
2019,02,17,03,42,00,37.8,,,,,,,,,,,,,,
2019,02,17,03,43,00,37.3,,,,,,,,,,,,,,
2019,02,17,03,44,00,37.2,,,,,,,,,,,,,,
2019,02,17,03,45,00,37.0,,,,,,,,,,,,,,
2019,02,17,03,46,00,36.4,,,,,,,,,,,,,,
2019,02,17,03,47,00,36.7,,,,,,,,,,,,,,
2019,02,17,03,48,00,36.2,,,,,,,,,,,,,,
2019,02,17,03,49,00,35.2,,,,,,,,,,,,,,
2019,02,17,03,50,00,37.0,,,,,,,,,,,,,,
2019,02,17,03,51,00,35.9,,,,,,,,,,,,,,
2019,02,17,03,52,00,35.9,,,,,,,,,,,,,,
2019,02,17,03,53,00,35.2,,,,,,,,,,,,,,
2019,02,17,03,54,00,35.9,,,,,,,,,,,,,,
2019,02,17,03,55,00,36.8,,,,,,,,,,,,,,
2019,02,17,03,56,00,37.0,,,,,,,,,,,,,,
2019,02,17,03,57,00,37.5,,,,,,,,,,,,,,
2019,02,17,03,58,00,37.1,,,,,,,,,,,,,,
2019,02,17,03,59,00,37.4,,,,,,,,,,,,,,
2019,02,17,04,00,00,36.5,,,,,,,,,,,,,,
2019,02,17,04,01,00,37.7,,,,,,,,,,,,,,
2019,02,17,04,02,00,37.3,,,,,,,,,,,,,,
2019,02,17,04,03,00,36.5,,,,,,,,,,,,,,
2019,02,17,04,04,00,34.8,,,,,,,,,,,,,,
2019,02,17,04,05,00,35.6,,,,,,,,,,,,,,
2019,02,17,04,06,00,34.7,,,,,,,,,,,,,,
2019,02,17,04,07,00,35.4,,,,,,,,,,,,,,
2019,02,17,04,08,00,36.4,,,,,,,,,,,,,,
2019,02,17,04,09,00,34.7,,,,,,,,,,,,,,
2019,02,17,04,10,00,35.3,,,,,,,,,,,,,,
2019,02,17,04,11,00,35.9,,,,,,,,,,,,,,
2019,02,17,04,12,00,35.5,,,,,,,,,,,,,,
2019,02,17,04,13,00,35.6,,,,,,,,,,,,,,
2019,02,17,04,14,00,36.5,,,,,,,,,,,,,,
2019,02,17,04,15,00,36.0,,,,,,,,,,,,,,
2019,02,17,04,16,00,34.7,,,,,,,,,,,,,,
2019,02,17,04,17,00,35.2,,,,,,,,,,,,,,
2019,02,17,04,18,00,36.2,,,,,,,,,,,,,,
2019,02,17,04,19,00,36.5,,,,,,,,,,,,,,
2019,02,17,04,20,00,36.6,,,,,,,,,,,,,,
2019,02,17,04,21,00,36.9,,,,,,,,,,,,,,
2019,02,17,04,22,00,37.5,,,,,,,,,,,,,,
2019,02,17,04,23,00,37.7,,,,,,,,,,,,,,
2019,02,17,04,24,00,37.6,,,,,,,,,,,,,,
2019,02,17,04,25,00,37.7,,,,,,,,,,,,,,
2019,02,17,04,26,00,36.5,,,,,,,,,,,,,,
2019,02,17,04,27,00,35.4,,,,,,,,,,,,,,
2019,02,17,04,28,00,36.4,,,,,,,,,,,,,,
2019,02,17,04,29,00,35.4,,,,,,,,,,,,,,
2019,02,17,04,30,00,35.5,,,,,,,,,,,,,,
2019,02,17,04,31,00,36.1,,,,,,,,,,,,,,
2019,02,17,04,32,00,35.2,,,,,,,,,,,,,,
2019,02,17,04,33,00,35.5,,,,,,,,,,,,,,
2019,02,17,04,34,00,37.2,,,,,,,,,,,,,,
2019,02,17,04,35,00,35.4,,,,,,,,,,,,,,
2019,02,17,04,36,00,35.0,,,,,,,,,,,,,,
2019,02,17,04,37,00,36.4,,,,,,,,,,,,,,
2019,02,17,04,38,00,37.6,,,,,,,,,,,,,,
2019,02,17,04,39,00,36.4,,,,,,,,,,,,,,
2019,02,17,04,40,00,36.1,,,,,,,,,,,,,,
2019,02,17,04,41,00,36.6,,,,,,,,,,,,,,
2019,02,17,04,42,00,36.9,,,,,,,,,,,,,,
2019,02,17,04,43,00,37.7,,,,,,,,,,,,,,
2019,02,17,04,44,00,38.1,,,,,,,,,,,,,,
2019,02,17,04,45,00,37.6,,,,,,,,,,,,,,
2019,02,17,04,46,00,37.8,,,,,,,,,,,,,,
2019,02,17,04,47,00,39.0,,,,,,,,,,,,,,
2019,02,17,04,48,00,37.8,,,,,,,,,,,,,,
2019,02,17,04,49,00,38.1,,,,,,,,,,,,,,
2019,02,17,04,50,00,38.5,,,,,,,,,,,,,,
2019,02,17,04,51,00,40.6,,,,,,,,,,,,,,
2019,02,17,04,52,00,41.5,,,,,,,,,,,,,,
2019,02,17,04,53,00,37.6,,,,,,,,,,,,,,
2019,02,17,04,54,00,36.9,,,,,,,,,,,,,,
2019,02,17,04,55,00,36.5,,,,,,,,,,,,,,
2019,02,17,04,56,00,37.1,,,,,,,,,,,,,,
2019,02,17,04,57,00,37.8,,,,,,,,,,,,,,
2019,02,17,04,58,00,37.6,,,,,,,,,,,,,,
2019,02,17,04,59,00,38.0,,,,,,,,,,,,,,
2019,02,17,05,00,00,38.1,,,,,,,,,,,,,,
2019,02,17,05,01,00,37.7,,,,,,,,,,,,,,
2019,02,17,05,02,00,37.6,,,,,,,,,,,,,,
2019,02,17,05,03,00,37.8,,,,,,,,,,,,,,
2019,02,17,05,04,00,38.0,,,,,,,,,,,,,,
2019,02,17,05,05,00,38.5,,,,,,,,,,,,,,
2019,02,17,05,06,00,38.6,,,,,,,,,,,,,,
2019,02,17,05,07,00,40.3,,,,,,,,,,,,,,
2019,02,17,05,08,00,39.1,,,,,,,,,,,,,,
2019,02,17,05,09,00,46.7,,,,,,,,,,,,,,
2019,02,17,05,10,00,39.4,,,,,,,,,,,,,,
2019,02,17,05,11,00,36.8,,,,,,,,,,,,,,
2019,02,17,05,12,00,35.6,,,,,,,,,,,,,,
2019,02,17,05,13,00,35.0,,,,,,,,,,,,,,
2019,02,17,05,14,00,35.7,,,,,,,,,,,,,,
2019,02,17,05,15,00,36.7,,,,,,,,,,,,,,
2019,02,17,05,16,00,37.5,,,,,,,,,,,,,,
2019,02,17,05,17,00,37.2,,,,,,,,,,,,,,
2019,02,17,05,18,00,38.2,,,,,,,,,,,,,,
2019,02,17,05,19,00,56.0,,,,,,,,,,,,,,
2019,02,17,05,20,00,68.5,,,,,,,,,,,,,,
2019,02,17,05,21,00,62.8,,,,,,,,,,,,,,
2019,02,17,05,22,00,56.7,,,,,,,,,,,,,,
2019,02,17,05,23,00,60.0,,,,,,,,,,,,,,
2019,02,17,05,24,00,43.8,,,,,,,,,,,,,,
2019,02,17,05,25,00,37.9,,,,,,,,,,,,,,
2019,02,17,05,26,00,40.7,,,,,,,,,,,,,,
2019,02,17,05,27,00,47.1,,,,,,,,,,,,,,
2019,02,17,05,28,00,39.6,,,,,,,,,,,,,,
2019,02,17,05,29,00,40.5,,,,,,,,,,,,,,
2019,02,17,05,30,00,37.8,,,,,,,,,,,,,,
2019,02,17,05,31,00,38.3,,,,,,,,,,,,,,
2019,02,17,05,32,00,38.5,,,,,,,,,,,,,,
2019,02,17,05,33,00,38.5,,,,,,,,,,,,,,
2019,02,17,05,34,00,36.7,,,,,,,,,,,,,,
2019,02,17,05,35,00,37.7,,,,,,,,,,,,,,
2019,02,17,05,36,00,36.8,,,,,,,,,,,,,,
2019,02,17,05,37,00,38.0,,,,,,,,,,,,,,
2019,02,17,05,38,00,42.3,,,,,,,,,,,,,,
2019,02,17,05,39,00,40.9,,,,,,,,,,,,,,
2019,02,17,05,40,00,37.9,,,,,,,,,,,,,,
2019,02,17,05,41,00,37.7,,,,,,,,,,,,,,
2019,02,17,05,42,00,40.5,,,,,,,,,,,,,,
2019,02,17,05,43,00,51.0,,,,,,,,,,,,,,
2019,02,17,05,44,00,46.8,,,,,,,,,,,,,,
2019,02,17,05,45,00,38.6,,,,,,,,,,,,,,
2019,02,17,05,46,00,36.8,,,,,,,,,,,,,,
2019,02,17,05,47,00,36.6,,,,,,,,,,,,,,
2019,02,17,05,48,00,35.8,,,,,,,,,,,,,,
2019,02,17,05,49,00,36.2,,,,,,,,,,,,,,
2019,02,17,05,50,00,37.2,,,,,,,,,,,,,,
2019,02,17,05,51,00,37.6,,,,,,,,,,,,,,
2019,02,17,05,52,00,38.2,,,,,,,,,,,,,,
2019,02,17,05,53,00,39.4,,,,,,,,,,,,,,
2019,02,17,05,54,00,37.8,,,,,,,,,,,,,,
2019,02,17,05,55,00,37.3,,,,,,,,,,,,,,
2019,02,17,05,56,00,37.5,,,,,,,,,,,,,,
2019,02,17,05,57,00,37.9,,,,,,,,,,,,,,
2019,02,17,05,58,00,50.5,,,,,,,,,,,,,,
2019,02,17,05,59,00,87.0,,,,,,,,,,,,,,
2019,02,17,06,00,00,78.0,,,,,,,,,,,,,,
2019,02,17,06,01,00,64.5,,,,,,,,,,,,,,
2019,02,17,06,02,00,56.8,,,,,,,,,,,,,,
2019,02,17,06,03,00,,,,,,,,,,,,,,,
2019,02,17,06,04,00,,,,,,,,,,,,,,,
2019,02,17,06,05,00,,,,,,,,,,,,,,,
2019,02,17,06,06,00,,,,,,,,,,,,,,,
2019,02,17,06,07,00,,,,,,,,,,,,,,,
2019,02,17,06,08,00,,,,,,,,,,,,,,,
2019,02,17,06,09,00,,,,,,,,,,,,,,,
2019,02,17,06,10,00,,,,,,,,,,,,,,,
2019,02,17,06,11,00,,,,,,,,,,,,,,,
2019,02,17,06,12,00,,,,,,,,,,,,,,,
2019,02,17,06,13,00,,,,,,,,,,,,,,,
2019,02,17,06,14,00,,,,,,,,,,,,,,,
2019,02,17,06,15,00,,,,,,,,,,,,,,,
2019,02,17,06,16,00,,,,,,,,,,,,,,,
2019,02,17,06,17,00,,,,,,,,,,,,,,,
2019,02,17,06,18,00,,,,,,,,,,,,,,,
2019,02,17,06,19,00,,,,,,,,,,,,,,,
2019,02,17,06,20,00,,,,,,,,,,,,,,,
2019,02,17,06,21,00,,,,,,,,,,,,,,,
2019,02,17,06,22,00,,,,,,,,,,,,,,,
2019,02,17,06,23,00,,,,,,,,,,,,,,,
2019,02,17,06,24,00,,,,,,,,,,,,,,,
2019,02,17,06,25,00,,,,,,,,,,,,,,,
2019,02,17,06,26,00,,,,,,,,,,,,,,,
2019,02,17,06,27,00,,,,,,,,,,,,,,,
2019,02,17,06,28,00,,,,,,,,,,,,,,,
2019,02,17,06,29,00,,,,,,,,,,,,,,,
2019,02,17,06,30,00,,,,,,,,,,,,,,,
2019,02,17,06,31,00,,,,,,,,,,,,,,,
2019,02,17,06,32,00,,,,,,,,,,,,,,,
2019,02,17,06,33,00,,,,,,,,,,,,,,,
2019,02,17,06,34,00,,,,,,,,,,,,,,,
2019,02,17,06,35,00,,,,,,,,,,,,,,,
2019,02,17,06,36,00,,,,,,,,,,,,,,,
2019,02,17,06,37,00,,,,,,,,,,,,,,,
2019,02,17,06,38,00,,,,,,,,,,,,,,,
2019,02,17,06,39,00,,,,,,,,,,,,,,,
2019,02,17,06,40,00,,,,,,,,,,,,,,,
2019,02,17,06,41,00,69.5,,,,,,,,,,,,,,
2019,02,17,06,42,00,56.6,,,,,,,,,,,,,,
2019,02,17,06,43,00,52.8,,,,,,,,,,,,,,
2019,02,17,06,44,00,59.8,,,,,,,,,,,,,,
2019,02,17,06,45,00,73.3,,,,,,,,,,,,,,
2019,02,17,06,46,00,74.1,,,,,,,,,,,,,,
2019,02,17,06,47,00,74.7,,,,,,,,,,,,,,
2019,02,17,06,48,00,68.9,,,,,,,,,,,,,,
2019,02,17,06,49,00,70.0,,,,,,,,,,,,,,
2019,02,17,06,50,00,76.7,,,,,,,,,,,,,,
2019,02,17,06,51,00,84.4,,,,,,,,,,,,,,
2019,02,17,06,52,00,71.2,,,,,,,,,,,,,,
2019,02,17,06,53,00,63.3,,,,,,,,,,,,,,
2019,02,17,06,54,00,73.8,,,,,,,,,,,,,,
2019,02,17,06,55,00,85.4,,,,,,,,,,,,,,
2019,02,17,06,56,00,83.0,,,,,,,,,,,,,,
2019,02,17,06,57,00,79.3,,,,,,,,,,,,,,
2019,02,17,06,58,00,67.8,,,,,,,,,,,,,,
2019,02,17,06,59,00,59.0,,,,,,,,,,,,,,
2019,02,17,07,00,00,62.2,,,,,,,,,,,,,,
2019,02,17,07,01,00,67.3,,,,,,,,,,,,,,
2019,02,17,07,02,00,61.4,,,,,,,,,,,,,,
2019,02,17,07,03,00,69.8,,,,,,,,,,,,,,
2019,02,17,07,04,00,80.6,,,,,,,,,,,,,,
2019,02,17,07,05,00,70.3,,,,,,,,,,,,,,
2019,02,17,07,06,00,71.4,,,,,,,,,,,,,,
2019,02,17,07,07,00,73.4,,,,,,,,,,,,,,
2019,02,17,07,08,00,77.8,,,,,,,,,,,,,,
2019,02,17,07,09,00,79.8,,,,,,,,,,,,,,
2019,02,17,07,10,00,71.7,,,,,,,,,,,,,,
2019,02,17,07,11,00,94.1,,,,,,,,,,,,,,
2019,02,17,07,12,00,111.6,,,,,,,,,,,,,,
2019,02,17,07,13,00,84.0,,,,,,,,,,,,,,
2019,02,17,07,14,00,103.9,,,,,,,,,,,,,,
2019,02,17,07,15,00,91.1,,,,,,,,,,,,,,
2019,02,17,07,16,00,109.5,,,,,,,,,,,,,,
2019,02,17,07,17,00,101.2,,,,,,,,,,,,,,
2019,02,17,07,18,00,77.2,,,,,,,,,,,,,,
2019,02,17,07,19,00,70.5,,,,,,,,,,,,,,
2019,02,17,07,20,00,67.9,,,,,,,,,,,,,,
2019,02,17,07,21,00,67.2,,,,,,,,,,,,,,
2019,02,17,07,22,00,65.9,,,,,,,,,,,,,,
2019,02,17,07,23,00,69.1,,,,,,,,,,,,,,
2019,02,17,07,24,00,70.3,,,,,,,,,,,,,,
2019,02,17,07,25,00,70.2,,,,,,,,,,,,,,
2019,02,17,07,26,00,65.7,,,,,,,,,,,,,,
2019,02,17,07,27,00,66.1,,,,,,,,,,,,,,
2019,02,17,07,28,00,64.2,,,,,,,,,,,,,,
2019,02,17,07,29,00,65.7,,,,,,,,,,,,,,
2019,02,17,07,30,00,74.0,,,,,,,,,,,,,,
2019,02,17,07,31,00,64.9,,,,,,,,,,,,,,
2019,02,17,07,32,00,67.8,,,,,,,,,,,,,,
2019,02,17,07,33,00,73.1,,,,,,,,,,,,,,
2019,02,17,07,34,00,67.2,,,,,,,,,,,,,,
2019,02,17,07,35,00,65.1,,,,,,,,,,,,,,
2019,02,17,07,36,00,61.2,,,,,,,,,,,,,,
2019,02,17,07,37,00,69.5,,,,,,,,,,,,,,
2019,02,17,07,38,00,69.3,,,,,,,,,,,,,,
2019,02,17,07,39,00,64.4,,,,,,,,,,,,,,
2019,02,17,07,40,00,72.8,,,,,,,,,,,,,,
2019,02,17,07,41,00,79.1,,,,,,,,,,,,,,
2019,02,17,07,42,00,93.6,,,,,,,,,,,,,,
2019,02,17,07,43,00,113.7,,,,,,,,,,,,,,
2019,02,17,07,44,00,112.2,,,,,,,,,,,,,,
2019,02,17,07,45,00,76.0,,,,,,,,,,,,,,
2019,02,17,07,46,00,70.4,,,,,,,,,,,,,,
2019,02,17,07,47,00,81.7,,,,,,,,,,,,,,
2019,02,17,07,48,00,78.9,,,,,,,,,,,,,,
2019,02,17,07,49,00,82.2,,,,,,,,,,,,,,
2019,02,17,07,50,00,81.7,,,,,,,,,,,,,,
2019,02,17,07,51,00,85.6,,,,,,,,,,,,,,
2019,02,17,07,52,00,92.9,,,,,,,,,,,,,,
2019,02,17,07,53,00,82.9,,,,,,,,,,,,,,
2019,02,17,07,54,00,79.2,,,,,,,,,,,,,,
2019,02,17,07,55,00,73.9,,,,,,,,,,,,,,
2019,02,17,07,56,00,74.6,,,,,,,,,,,,,,
2019,02,17,07,57,00,79.5,,,,,,,,,,,,,,
2019,02,17,07,58,00,79.6,,,,,,,,,,,,,,
2019,02,17,07,59,00,78.4,,,,,,,,,,,,,,
2019,02,17,08,00,00,76.5,,,,,,,,,,,,,,
2019,02,17,08,01,00,73.4,,,,,,,,,,,,,,
2019,02,17,08,02,00,71.2,,,,,,,,,,,,,,
2019,02,17,08,03,00,72.8,,,,,,,,,,,,,,
2019,02,17,08,04,00,70.1,,,,,,,,,,,,,,
2019,02,17,08,05,00,72.5,,,,,,,,,,,,,,
2019,02,17,08,06,00,77.5,,,,,,,,,,,,,,
2019,02,17,08,07,00,83.6,,,,,,,,,,,,,,
2019,02,17,08,08,00,88.2,,,,,,,,,,,,,,
2019,02,17,08,09,00,102.4,,,,,,,,,,,,,,
2019,02,17,08,10,00,99.7,,,,,,,,,,,,,,
2019,02,17,08,11,00,88.5,,,,,,,,,,,,,,
2019,02,17,08,12,00,81.4,,,,,,,,,,,,,,
2019,02,17,08,13,00,85.1,,,,,,,,,,,,,,
2019,02,17,08,14,00,96.1,,,,,,,,,,,,,,
2019,02,17,08,15,00,84.9,,,,,,,,,,,,,,
2019,02,17,08,16,00,97.4,,,,,,,,,,,,,,
2019,02,17,08,17,00,85.3,,,,,,,,,,,,,,
2019,02,17,08,18,00,89.4,,,,,,,,,,,,,,
2019,02,17,08,19,00,98.6,,,,,,,,,,,,,,
2019,02,17,08,20,00,94.8,,,,,,,,,,,,,,
2019,02,17,08,21,00,108.7,,,,,,,,,,,,,,
2019,02,17,08,22,00,129.8,,,,,,,,,,,,,,
2019,02,17,08,23,00,124.0,,,,,,,,,,,,,,
2019,02,17,08,24,00,108.2,,,,,,,,,,,,,,
2019,02,17,08,25,00,106.4,,,,,,,,,,,,,,
2019,02,17,08,26,00,103.5,,,,,,,,,,,,,,
2019,02,17,08,27,00,98.9,,,,,,,,,,,,,,
2019,02,17,08,28,00,89.4,,,,,,,,,,,,,,
2019,02,17,08,29,00,92.4,,,,,,,,,,,,,,
2019,02,17,08,30,00,101.6,,,,,,,,,,,,,,
2019,02,17,08,31,00,101.9,,,,,,,,,,,,,,
2019,02,17,08,32,00,85.3,,,,,,,,,,,,,,
2019,02,17,08,33,00,90.5,,,,,,,,,,,,,,
2019,02,17,08,34,00,87.0,,,,,,,,,,,,,,
2019,02,17,08,35,00,87.1,,,,,,,,,,,,,,
2019,02,17,08,36,00,103.5,,,,,,,,,,,,,,
2019,02,17,08,37,00,122.1,,,,,,,,,,,,,,
2019,02,17,08,38,00,132.1,,,,,,,,,,,,,,
2019,02,17,08,39,00,111.2,,,,,,,,,,,,,,
2019,02,17,08,40,00,105.5,,,,,,,,,,,,,,
2019,02,17,08,41,00,106.5,,,,,,,,,,,,,,
2019,02,17,08,42,00,96.5,,,,,,,,,,,,,,
2019,02,17,08,43,00,90.7,,,,,,,,,,,,,,
2019,02,17,08,44,00,97.2,,,,,,,,,,,,,,
2019,02,17,08,45,00,104.2,,,,,,,,,,,,,,
2019,02,17,08,46,00,112.9,,,,,,,,,,,,,,
2019,02,17,08,47,00,116.7,,,,,,,,,,,,,,
2019,02,17,08,48,00,115.8,,,,,,,,,,,,,,
2019,02,17,08,49,00,112.4,,,,,,,,,,,,,,
2019,02,17,08,50,00,104.0,,,,,,,,,,,,,,
2019,02,17,08,51,00,90.2,,,,,,,,,,,,,,
2019,02,17,08,52,00,99.7,,,,,,,,,,,,,,
2019,02,17,08,53,00,101.5,,,,,,,,,,,,,,
2019,02,17,08,54,00,99.7,,,,,,,,,,,,,,
2019,02,17,08,55,00,84.8,,,,,,,,,,,,,,
2019,02,17,08,56,00,80.3,,,,,,,,,,,,,,
2019,02,17,08,57,00,79.3,,,,,,,,,,,,,,
2019,02,17,08,58,00,80.6,,,,,,,,,,,,,,
2019,02,17,08,59,00,81.6,,,,,,,,,,,,,,
2019,02,17,09,00,00,83.1,,,,,,,,,,,,,,
2019,02,17,09,01,00,84.9,,,,,,,,,,,,,,
2019,02,17,09,02,00,88.3,,,,,,,,,,,,,,
2019,02,17,09,03,00,83.6,,,,,,,,,,,,,,
2019,02,17,09,04,00,98.6,,,,,,,,,,,,,,
2019,02,17,09,05,00,105.2,,,,,,,,,,,,,,
2019,02,17,09,06,00,94.3,,,,,,,,,,,,,,
2019,02,17,09,07,00,113.3,,,,,,,,,,,,,,
2019,02,17,09,08,00,115.4,,,,,,,,,,,,,,
2019,02,17,09,09,00,109.4,,,,,,,,,,,,,,
2019,02,17,09,10,00,105.2,,,,,,,,,,,,,,
2019,02,17,09,11,00,114.3,,,,,,,,,,,,,,
2019,02,17,09,12,00,120.7,,,,,,,,,,,,,,
2019,02,17,09,13,00,140.2,,,,,,,,,,,,,,
2019,02,17,09,14,00,135.7,,,,,,,,,,,,,,
2019,02,17,09,15,00,118.5,,,,,,,,,,,,,,
2019,02,17,09,16,00,112.6,,,,,,,,,,,,,,
2019,02,17,09,17,00,108.6,,,,,,,,,,,,,,
2019,02,17,09,18,00,100.4,,,,,,,,,,,,,,
2019,02,17,09,19,00,85.0,,,,,,,,,,,,,,
2019,02,17,09,20,00,85.7,,,,,,,,,,,,,,
2019,02,17,09,21,00,89.4,,,,,,,,,,,,,,
2019,02,17,09,22,00,104.4,,,,,,,,,,,,,,
2019,02,17,09,23,00,94.2,,,,,,,,,,,,,,
2019,02,17,09,24,00,84.6,,,,,,,,,,,,,,
2019,02,17,09,25,00,81.2,,,,,,,,,,,,,,
2019,02,17,09,26,00,88.3,,,,,,,,,,,,,,
2019,02,17,09,27,00,95.1,,,,,,,,,,,,,,
2019,02,17,09,28,00,87.9,,,,,,,,,,,,,,
2019,02,17,09,29,00,93.2,,,,,,,,,,,,,,
2019,02,17,09,30,00,89.2,,,,,,,,,,,,,,
2019,02,17,09,31,00,90.4,,,,,,,,,,,,,,
2019,02,17,09,32,00,108.3,,,,,,,,,,,,,,
2019,02,17,09,33,00,111.6,,,,,,,,,,,,,,
2019,02,17,09,34,00,109.9,,,,,,,,,,,,,,
2019,02,17,09,35,00,116.7,,,,,,,,,,,,,,
2019,02,17,09,36,00,107.1,,,,,,,,,,,,,,
2019,02,17,09,37,00,102.7,,,,,,,,,,,,,,
2019,02,17,09,38,00,106.2,,,,,,,,,,,,,,
2019,02,17,09,39,00,118.6,,,,,,,,,,,,,,
2019,02,17,09,40,00,110.8,,,,,,,,,,,,,,
2019,02,17,09,41,00,99.0,,,,,,,,,,,,,,
2019,02,17,09,42,00,102.8,,,,,,,,,,,,,,
2019,02,17,09,43,00,113.0,,,,,,,,,,,,,,
2019,02,17,09,44,00,143.2,,,,,,,,,,,,,,
2019,02,17,09,45,00,163.1,,,,,,,,,,,,,,
2019,02,17,09,46,00,139.8,,,,,,,,,,,,,,
2019,02,17,09,47,00,134.7,,,,,,,,,,,,,,
2019,02,17,09,48,00,122.6,,,,,,,,,,,,,,
2019,02,17,09,49,00,118.5,,,,,,,,,,,,,,
2019,02,17,09,50,00,112.9,,,,,,,,,,,,,,
2019,02,17,09,51,00,116.2,,,,,,,,,,,,,,
2019,02,17,09,52,00,119.4,,,,,,,,,,,,,,
2019,02,17,09,53,00,112.7,,,,,,,,,,,,,,
2019,02,17,09,54,00,115.8,,,,,,,,,,,,,,
2019,02,17,09,55,00,126.6,,,,,,,,,,,,,,
2019,02,17,09,56,00,125.5,,,,,,,,,,,,,,
2019,02,17,09,57,00,138.2,,,,,,,,,,,,,,
2019,02,17,09,58,00,135.2,,,,,,,,,,,,,,
2019,02,17,09,59,00,108.3,,,,,,,,,,,,,,
2019,02,17,10,00,00,111.7,,,,,,,,,,,,,,
2019,02,17,10,01,00,123.3,,,,,,,,,,,,,,